Date String (YYYY-MM-DD hh:mm:ss) UTC,Instrument flags,Ambient pressure (hPa),Sample flow (lpm),Bypass flow (lpm),Sample temperature (°C),Ambient temperature (°C),ASC tube jacket temperature (°C),LED temperature (°C),Box temperature (°C),Sample RH (%),Span deviation,Mass concentration (μg/m³),Mass concentration (μg/m³),Mass concentration (μg/m³)
DateTimeUTC,F1_M11,P_M11,Q1_M11,Q2_M11,T1_M11,T2_M11,T3_M11,T4_M11,T5_M11,U1_M11,ZSPAN_M11,X2_M11,X0_M11,X1_M11
2023-04-14 20:00:00,,0822.3,5.00,0.00,23.0,21.3,00.0,31.3,24.5,20.3,0000.0,0003.18,0006.09,0002.95
2023-04-14 20:01:00,,0822.3,5.01,0.00,23.0,21.3,00.0,31.3,24.6,20.2,0000.0,0003.18,0006.00,0002.94
2023-04-14 20:02:00,,0822.2,5.01,0.00,23.0,21.3,00.0,31.3,24.6,20.0,0000.0,0003.17,0005.95,0002.91
2023-04-14 20:03:00,,0822.3,5.00,0.00,23.0,21.3,00.0,31.3,24.5,19.7,0000.0,0003.18,0005.14,0002.91
2023-04-14 20:04:00,,0822.3,4.98,0.00,23.0,21.3,00.0,31.3,24.5,20.0,0000.0,0003.19,0004.75,0002.92
2023-04-14 20:05:00,,0822.2,5.00,0.00,23.0,21.5,00.0,31.2,24.7,20.0,0000.0,0003.21,0004.52,0002.94
2023-04-14 20:06:00,,0822.3,5.01,0.00,23.1,22.4,00.0,31.2,25.0,19.9,0000.0,0003.22,0004.21,0002.95
2023-04-14 20:07:00,,0822.4,5.00,0.00,23.2,23.2,00.0,31.2,25.2,19.7,0000.0,0003.23,0004.19,0002.97
2023-04-14 20:08:00,,0822.3,4.99,0.00,23.3,23.2,00.0,31.3,25.1,19.8,0000.0,0003.24,0004.33,0002.98
2023-04-14 20:09:00,,0822.3,4.99,0.00,23.3,23.1,00.0,31.4,25.0,19.3,0000.0,0003.26,0004.46,0002.99
2023-04-14 20:10:00,,0822.3,5.00,0.00,23.3,22.9,00.0,31.4,25.0,19.4,0000.0,0003.24,0004.33,0002.99
2023-04-14 20:11:00,,0822.3,5.01,0.00,23.3,22.7,00.0,31.5,24.9,19.8,0000.0,0003.22,0004.20,0002.97
2023-04-14 20:12:00,,0822.4,5.01,0.00,23.3,22.6,00.0,31.5,24.9,19.8,0000.0,0003.21,0004.16,0002.97
2023-04-14 20:13:00,,0822.4,4.99,0.00,23.3,22.4,00.0,31.5,24.9,19.4,0000.0,0003.22,0004.29,0003.00
2023-04-14 20:14:00,,0822.4,4.99,0.00,23.3,22.3,00.0,31.5,24.9,19.2,0000.0,0003.21,0004.19,0003.00
2023-04-14 20:15:00,,0822.3,5.01,0.00,23.3,22.2,00.0,31.5,24.9,19.4,0000.0,0003.21,0004.21,0003.01
2023-04-14 20:16:00,,0822.4,5.00,0.00,23.3,22.1,00.0,31.5,24.9,19.5,0000.0,0003.21,0004.23,0003.01
2023-04-14 20:17:00,,0822.4,5.00,0.00,23.3,22.1,00.0,31.6,24.9,19.4,0000.0,0003.21,0004.21,0003.03
2023-04-14 20:18:00,,0822.4,4.99,0.00,23.3,22.0,00.0,31.5,24.9,20.0,0000.0,0003.20,0004.21,0003.04
2023-04-14 20:19:00,,0822.4,4.99,0.00,23.3,22.0,00.0,31.6,24.9,19.9,0000.0,0003.20,0004.12,0003.06
2023-04-14 20:20:00,,0822.4,5.01,0.00,23.3,21.9,00.0,31.6,24.9,20.2,0000.0,0003.20,0003.99,0003.08
2023-04-14 20:21:00,,0822.3,5.01,0.00,23.3,21.9,00.0,31.6,24.9,19.9,0000.0,0003.22,0004.04,0003.11
2023-04-14 20:22:00,,0822.3,5.01,0.00,23.3,21.8,00.0,31.6,24.9,19.7,0000.0,0003.29,0004.23,0003.14
2023-04-14 20:23:00,,0822.2,5.00,0.00,23.3,21.8,00.0,31.6,24.8,19.8,0000.0,0003.32,0004.35,0003.16
2023-04-14 20:24:00,,0822.2,4.98,0.00,23.3,21.8,00.0,31.6,24.8,19.6,0000.0,0003.33,0004.26,0003.18
2023-04-14 20:25:00,,0822.3,5.00,0.00,23.3,21.7,00.0,31.6,24.8,19.5,0000.0,0003.35,0004.32,0003.20
2023-04-14 20:26:00,,0822.2,5.01,0.00,23.3,21.7,00.0,31.6,24.8,20.0,0000.0,0003.36,0004.32,0003.21
2023-04-14 20:27:00,,0822.2,5.01,0.00,23.3,21.7,00.0,31.6,24.8,20.0,0000.0,0003.36,0004.28,0003.22
2023-04-14 20:28:00,,0822.3,5.00,0.00,23.3,21.7,00.0,31.6,24.8,20.1,0000.0,0003.37,0004.26,0003.23
2023-04-14 20:29:00,,0822.2,5.00,0.00,23.3,21.7,00.0,31.6,24.8,19.5,0000.0,0003.38,0004.28,0003.24
2023-04-14 20:30:00,,0822.3,4.99,0.00,23.3,21.7,00.0,31.6,24.8,19.2,0000.0,0003.39,0004.24,0003.25
2023-04-14 20:31:00,,0822.2,5.00,0.00,23.3,21.7,00.0,31.6,24.8,19.5,0000.0,0003.41,0004.31,0003.27
2023-04-14 20:32:00,,0822.2,5.00,0.00,23.3,21.7,00.0,31.6,24.8,19.8,0000.0,0003.40,0004.29,0003.26
2023-04-14 20:33:00,,0822.2,5.00,0.00,23.3,21.7,00.0,31.6,24.8,19.8,0000.0,0003.38,0004.22,0003.26
2023-04-14 20:34:00,,0822.2,5.00,0.00,23.3,21.7,00.0,31.6,24.8,20.1,0000.0,0003.38,0004.17,0003.26
2023-04-14 20:35:00,,0822.3,5.00,0.00,23.3,21.7,00.0,31.6,24.8,20.2,0000.0,0003.40,0004.31,0003.26
2023-04-14 20:36:00,,0822.3,5.00,0.00,23.3,21.6,00.0,31.6,24.8,20.7,0000.0,0003.41,0004.34,0003.27
2023-04-14 20:37:00,,0822.4,5.01,0.00,23.3,21.6,00.0,31.6,24.8,20.6,0000.0,0003.42,0004.53,0003.27
2023-04-14 20:38:00,,0822.4,5.00,0.00,23.3,21.6,00.0,31.6,24.8,19.9,0000.0,0003.43,0004.59,0003.28
2023-04-14 20:39:00,,0822.4,5.00,0.00,23.3,21.6,00.0,31.6,24.8,19.6,0000.0,0003.46,0004.64,0003.30
2023-04-14 20:40:00,,0822.3,5.00,0.00,23.3,21.6,00.0,31.6,24.8,19.5,0000.0,0003.47,0004.67,0003.31
2023-04-14 20:41:00,,0822.3,5.01,0.00,23.3,21.6,00.0,31.6,24.8,19.6,0000.0,0003.49,0004.75,0003.32
2023-04-14 20:42:00,,0822.4,5.00,0.00,23.3,21.6,00.0,31.6,24.8,19.9,0000.0,0003.51,0004.88,0003.32
2023-04-14 20:43:00,,0822.4,5.00,0.00,23.3,21.6,00.0,31.6,24.8,20.0,0000.0,0003.52,0004.89,0003.33
2023-04-14 20:44:00,,0822.4,5.01,0.00,23.3,21.6,00.0,31.6,24.8,19.8,0000.0,0003.55,0005.08,0003.35
2023-04-14 20:45:00,,0822.4,5.00,0.00,23.3,21.6,00.0,31.6,24.8,19.8,0000.0,0003.56,0005.13,0003.36
2023-04-14 20:46:00,,0822.4,4.99,0.00,23.3,21.6,00.0,31.6,24.8,19.9,0000.0,0003.53,0004.98,0003.37
2023-04-14 20:47:00,,0822.4,5.01,0.00,23.3,21.6,00.0,31.6,24.8,20.4,0000.0,0003.57,0005.12,0003.41
2023-04-14 20:48:00,,0822.3,5.01,0.00,23.3,21.6,00.0,31.6,24.8,20.0,0000.0,0003.62,0005.16,0003.46
2023-04-14 20:49:00,,0822.2,4.99,0.00,23.3,21.6,00.0,31.6,24.8,19.9,0000.0,0003.71,0005.42,0003.53
2023-04-14 20:50:00,,0822.2,5.00,0.00,23.3,21.6,00.0,31.6,24.8,20.0,0000.0,0003.78,0005.53,0003.60
2023-04-14 20:51:00,,0822.2,5.01,0.00,23.3,21.6,00.0,31.6,24.8,20.0,0000.0,0003.82,0005.59,0003.65
2023-04-14 20:52:00,,0822.2,5.01,0.00,23.3,21.6,00.0,31.6,24.8,20.3,0000.0,0003.85,0005.64,0003.69
2023-04-14 20:53:00,,0822.2,4.99,0.00,23.3,21.6,00.0,31.6,24.8,20.4,0000.0,0003.87,0005.56,0003.72
2023-04-14 20:54:00,,0822.3,4.99,0.00,23.3,21.6,00.0,31.6,24.8,20.8,0000.0,0003.89,0005.59,0003.75
2023-04-14 20:55:00,,0822.3,5.00,0.00,23.3,21.6,00.0,31.6,24.8,20.4,0000.0,0003.93,0005.54,0003.80
2023-04-14 20:56:00,,0822.4,5.00,0.00,23.3,21.6,00.0,31.6,24.8,19.9,0000.0,0003.96,0005.55,0003.84
2023-04-14 20:57:00,,0822.4,5.00,0.00,23.3,21.6,00.0,31.6,24.8,19.5,0000.0,0004.00,0005.66,0003.87
2023-04-14 20:58:00,,0822.4,4.99,0.00,23.3,21.6,00.0,31.5,24.8,19.6,0000.0,0004.00,0005.54,0003.88
2023-04-14 20:59:00,,0822.4,4.99,0.00,23.3,21.6,00.0,31.5,24.8,19.8,0000.0,0003.96,0005.37,0003.86
